Flight Information

DEPARTURE
ASPEN, CO
Elevation:
7837
Runways:
15/33 - 8006x100 - ASPH-G
ATIS:
120.4
Clearance Delivery:
123.75
Ground:
121.9
Tower:
ASPEN TOWER 118.85
DESTINATION
,
Elevation:
TPA:
1000 (est.)


6179.2 NM79° True-12° Var66° HDG

Flight Plan:
(click to file on line)

1. Type
2. Aircraft Identification
3. Aircraft Type / Special Equipment
4. True Airspeed
kts
5. Departure Airport
(ICAO code)
6. Arriving Airport
(ICAO code)
7. Cruising Altitude
ft
8. Alternate Airport
(ICAO code)
9. Route of Flight
10. Remarks


00:00:00 Departure ATIS: Destination ATIS:

Clearance Limit:
Route:
Altitude: Expect in minutes
Frequency:
Transponder: (7500 Hijack / 7600 Lost Comms / 7700 Emergency)


KASE 211653Z VRB03KT 10SM CLR 12/M07 A3056 RMK AO2 SLP283 T01171072
Time: 2021-09-21T16:53:00Z
1632245095
Winds: variable
Visibility: 10.0 sm
Clouds (AGL): CLR
Temperature: 11.7 C
Dew Point: -7.2 C
Pressure: 30.561024 in Hgbr


Notes:

Data extracted from FAA Digital Chart Supplement. Effective: 0901Z Thursday, AUG 12, 2021 to 0901Z Thursday, OCT 7, 2021
Current ATIS data is provided courtisy of PilotEdge.